Location: Bothwell
(42.3833°S, 147.0000°E)
Time: 14:08:20
(UTC+11:00)

FO-29 - Pass Details

Date: 08 June 2023
Orbit: 799 x 1321 km, 98.5° (Epoch: 01 October)

Event Time Altitude Azimuth Distance (km) Brightness Sun altitude
Rises 17:14:14 0° 170° (S) 4,323 12.5 -5.4°
Reaches altitude 10° 17:17:05 10° 173° (S) 3,312 12.0 -5.9°
Maximum altitude 17:24:34 58° 249° (WSW) 1,392 10.6 -7.2°
Drops below altitude 10° 17:31:17 10° 326° (NW) 2,971 13.0 -8.3°
Sets 17:33:43 0° 330° (NNW) 3,850 13.6 -8.7°
